Погода в Димитрово

Россия / Еврейская автономная область     48°23′43″N   132°34′40″E
темп.,
°C
ветер,
м/с
пор.,
м/с
влажн.,
%
обл.,
%
осадки,
мм/ч
давл.,
гПа
погр.,
м
8 мая, сб
сб801:00+6всв101685100 1.0 993829
04:00+5всв71285100 1.1 993771
07:00+4всв5996100 1.7 995695
10:00+4св51096100 3.4 995684
13:00+4всв6886100 0.1 997676
16:00+5св5993100 0.1 998504
19:00+6св61287100 0.1 997396
22:00+6всв101781100 0.3 998613
9 мая, вс
вс901:00+6всв111879100 0.0 998648
04:00+5всв121980100 0.1 997622
07:00+5всв111883100 0.4 999686
10:00+4всв91590100 3.2 1001757
13:00+5всв71189100 0.9 1003758
16:00+7св4982100 1.1 1003772
19:00+7св5982100 0.0 1005355
22:00+7св3683100 0.1 1007168
10 мая, пн
пн1001:00+7с2285100 0.3 100821
04:00+6с119199 0.6 100911
07:00+6зюз229198 0.1 1010102
10:00+10юз446994 0.1 1010929
13:00+9зсз6681100 0.1 1011588
16:00+11зюз447164 0.1 1010814
19:00+11зсз3473100 0.2 1011312
22:00+10сз227992 0.2 101326
11 мая, вт
вт1101:00+9в578399 0.0 1014261
04:00+7в6975100 0.1 1016482
07:00+6в4673100 0.0 1018423
10:00+7юв3472100 0.0 1019415
13:00+8ю226787 0.0 1019480
16:00+12ю22619 0.0 1017810
19:00+12ююв33590 0.0 1016880
22:00+9вюв227223 0.0 101713
12 мая, ср
ср1201:00+8вюв4476100 0.0 101650
04:00+7вюв4478100 0.0 101551
07:00+8в5976100 0.0 1014190
10:00+11юв81268100 0.0 1012777
13:00+12ююв8964100 0.0 1010924
16:00+10ююв71283100 1.3 1008668
19:00+8юв8139299 6.2 1006666
22:00+9ююв61191100 6.3 1006510